SR7A Weather Reports


time (UTC)temp
F
wind
direction
speed
knots
gust
knots
rain 1hr
in
rain 24hr
in
rain mn
in
humidity
%
barometer
mb
20260503235505 51 0 0.0 0.0 0.00 0.00 0.00 1 988.0
20260503234904 51 0 0.0 0.0 0.00 0.00 0.00 1 988.0
20260503234302 51 0 0.0 0.0 0.00 0.00 0.00 1 988.0
20260503233906 51 0 0.0 0.0 0.00 0.00 0.00 1 988.0
20260503233100 53 0 0.0 0.0 0.00 0.00 0.00 1 987.8
20260503232458 53 0 0.0 0.0 0.00 0.00 0.00 1 987.8
20260503231857 53 0 0.0 0.0 0.00 0.00 0.00 1 988.3
20260503231256 53 0 0.0 0.0 0.00 0.00 0.00 1 988.0
20260503230654 53 0 0.0 0.0 0.00 0.00 0.00 1 987.8
20260503230053 53 0 0.0 0.0 0.00 0.00 0.00 1 988.3
20260503225452 53 0 0.0 0.0 0.00 0.00 0.00 1 988.0
20260503224939 53 0 0.0 0.0 0.00 0.00 0.00 1 988.0
20260503224249 53 0 0.0 0.0 0.00 0.00 0.00 1 988.0
20260503223648 53 0 0.0 0.0 0.00 0.00 0.00 1 987.8
20260503223047 55 0 0.0 0.0 0.00 0.00 0.00 1 988.0
20260503222445 55 0 0.0 0.0 0.00 0.00 0.00 1 988.0
20260503221940 55 0 0.0 0.0 0.00 0.00 0.00 1 987.8
20260503221243 55 0 0.0 0.0 0.00 0.00 0.00 1 988.0
20260503220641 55 0 0.0 0.0 0.00 0.00 0.00 1 988.0
20260503220040 55 0 0.0 0.0 0.00 0.00 0.00 1 988.0
20260503215439 55 0 0.0 0.0 0.00 0.00 0.00 1 988.0
20260503215039 55 0 0.0 0.0 0.00 0.00 0.00 1 988.0
20260503214236 55 0 0.0 0.0 0.00 0.00 0.00 1 987.8
20260503213635 55 0 0.0 0.0 0.00 0.00 0.00 1 987.8
20260503213034 55 0 0.0 0.0 0.00 0.00 0.00 1 988.0
20260503212432 55 0 0.0 0.0 0.00 0.00 0.00 1 987.8
20260503211901 55 0 0.0 0.0 0.00 0.00 0.00 1 987.8
20260503211230 55 0 0.0 0.0 0.00 0.00 0.00 1 987.8
20260503210854 57 0 0.0 0.0 0.00 0.00 0.00 1 987.8
20260503210052 57 0 0.0 0.0 0.00 0.00 0.00 1 987.8
20260503205426 57 0 0.0 0.0 0.00 0.00 0.00 1 987.8
20260503204851 57 0 0.0 0.0 0.00 0.00 0.00 1 987.8
20260503204223 57 0 0.0 0.0 0.00 0.00 0.00 1 988.0
20260503203622 57 0 0.0 0.0 0.00 0.00 0.00 1 987.8
20260503203021 57 0 0.0 0.0 0.00 0.00 0.00 1 987.8
20260503202419 57 0 0.0 0.0 0.00 0.00 0.00 1 987.8
20260503202028 57 0 0.0 0.0 0.00 0.00 0.00 1 987.8
20260503201217 57 0 0.0 0.0 0.00 0.00 0.00 1 987.5
20260503200615 57 0 0.0 0.0 0.00 0.00 0.00 1 987.5
20260503200014 57 0 0.0 0.0 0.00 0.00 0.00 1 987.5
20260503195413 57 0 0.0 0.0 0.00 0.00 0.00 1 987.5
20260503194812 59 0 0.0 0.0 0.00 0.00 0.00 1 987.5
20260503194210 59 0 0.0 0.0 0.00 0.00 0.00 1 987.5
20260503193609 59 0 0.0 0.0 0.00 0.00 0.00 1 987.5
20260503193008 59 0 0.0 0.0 0.00 0.00 0.00 1 987.5
20260503192406 59 0 0.0 0.0 0.00 0.00 0.00 1 987.8
20260503191805 59 0 0.0 0.0 0.00 0.00 0.00 1 987.5
20260503191204 59 0 0.0 0.0 0.00 0.00 0.00 1 987.5
20260503190602 59 0 0.0 0.0 0.00 0.00 0.00 1 987.5
20260503190019 59 0 0.0 0.0 0.00 0.00 0.00 1 987.5
20260503185400 59 0 0.0 0.0 0.00 0.00 0.00 1 987.8
20260503184759 59 0 0.0 0.0 0.00 0.00 0.00 1 987.5
20260503184157 59 0 0.0 0.0 0.00 0.00 0.00 1 987.5
20260503183556 60 0 0.0 0.0 0.00 0.00 0.00 1 987.5
20260503182955 60 0 0.0 0.0 0.00 0.00 0.00 1 987.8
20260503182353 60 0 0.0 0.0 0.00 0.00 0.00 1 987.2
20260503181752 60 0 0.0 0.0 0.00 0.00 0.00 1 987.5
20260503181151 60 0 0.0 0.0 0.00 0.00 0.00 1 987.5
20260503180549 60 0 0.0 0.0 0.00 0.00 0.00 1 987.5
20260503175948 60 0 0.0 0.0 0.00 0.00 0.00 1 987.2
20260503175347 60 0 0.0 0.0 0.00 0.00 0.00 1 987.2
20260503175019 62 0 0.0 0.0 0.00 0.00 0.00 1 987.5
20260503174144 62 0 0.0 0.0 0.00 0.00 0.00 1 987.2
20260503173543 62 0 0.0 0.0 0.00 0.00 0.00 1 987.5
20260503172942 62 0 0.0 0.0 0.00 0.00 0.00 1 987.5
20260503172340 62 0 0.0 0.0 0.00 0.00 0.00 1 987.5
20260503171739 62 0 0.0 0.0 0.00 0.00 0.00 1 987.2
20260503171138 62 0 0.0 0.0 0.00 0.00 0.00 1 987.5
20260503170536 64 0 0.0 0.0 0.00 0.00 0.00 1 987.5
20260503150510 66 0 0.0 0.0 0.00 0.00 0.00 1 988.0
20260503131046 66 0 0.0 0.0 0.00 0.00 0.00 1 989.1
20260503130444 66 0 0.0 0.0 0.00 0.00 0.00 1 989.1
20260503110418 64 0 0.0 0.0 0.00 0.00 0.00 1 990.2
20260503090352 60 0 0.0 0.0 0.00 0.00 0.00 1 991.3
20260503081542 59 0 0.0 0.0 0.00 0.00 0.00 1 991.6
20260503080941 59 0 0.0 0.0 0.00 0.00 0.00 1 991.6
20260503080339 59 0 0.0 0.0 0.00 0.00 0.00 1 991.6
20260503072732 57 0 0.0 0.0 0.00 0.00 0.00 1 991.8
20260503072130 57 0 0.0 0.0 0.00 0.00 0.00 1 991.8
20260503071529 57 0 0.0 0.0 0.00 0.00 0.00 1 991.6
20260503070928 57 0 0.0 0.0 0.00 0.00 0.00 1 991.8
20260503070349 57 0 0.0 0.0 0.00 0.00 0.00 1 991.6
20260503060313 53 0 0.0 0.0 0.00 0.00 0.00 1 992.1
20260503055111 53 0 0.0 0.0 0.00 0.00 0.00 1 992.1
20260503054509 53 0 0.0 0.0 0.00 0.00 0.00 1 991.8
20260503053908 53 0 0.0 0.0 0.00 0.00 0.00 1 992.1
20260503053307 51 0 0.0 0.0 0.00 0.00 0.00 1 992.1
20260503052706 51 0 0.0 0.0 0.00 0.00 0.00 1 991.6
20260503052104 51 0 0.0 0.0 0.00 0.00 0.00 1 992.1
20260503051503 50 0 0.0 0.0 0.00 0.00 0.00 1 991.8
20260503050902 50 0 0.0 0.0 0.00 0.00 0.00 1 991.8
20260503050300 50 0 0.0 0.0 0.00 0.00 0.00 1 991.8
20260503045659 50 0 0.0 0.0 0.00 0.00 0.00 1 991.8
20260503045058 50 0 0.0 0.0 0.00 0.00 0.00 1 992.1
20260503044457 48 0 0.0 0.0 0.00 0.00 0.00 1 992.1
20260503043855 48 0 0.0 0.0 0.00 0.00 0.00 1 992.1
20260503043254 48 0 0.0 0.0 0.00 0.00 0.00 1 991.8
20260503042653 48 0 0.0 0.0 0.00 0.00 0.00 1 991.8
20260503042051 48 0 0.0 0.0 0.00 0.00 0.00 1 991.8
20260503041450 46 0 0.0 0.0 0.00 0.00 0.00 1 991.6
20260503040849 46 0 0.0 0.0 0.00 0.00 0.00 1 991.6
20260503040247 46 0 0.0 0.0 0.00 0.00 0.00 1 991.6
20260503035646 46 0 0.0 0.0 0.00 0.00 0.00 1 991.8
20260503035213 46 0 0.0 0.0 0.00 0.00 0.00 1 991.8
20260503034443 46 0 0.0 0.0 0.00 0.00 0.00 1 992.1
20260503033842 46 0 0.0 0.0 0.00 0.00 0.00 1 991.8
20260503033241 46 0 0.0 0.0 0.00 0.00 0.00 1 991.8
20260503032639 46 0 0.0 0.0 0.00 0.00 0.00 1 991.8
20260503032038 46 0 0.0 0.0 0.00 0.00 0.00 1 991.8
20260503031437 46 0 0.0 0.0 0.00 0.00 0.00 1 991.8
20260503030836 46 0 0.0 0.0 0.00 0.00 0.00 1 991.6
20260503030234 46 0 0.0 0.0 0.00 0.00 0.00 1 991.6
20260503025633 46 0 0.0 0.0 0.00 0.00 0.00 1 991.6
20260503025032 46 0 0.0 0.0 0.00 0.00 0.00 1 991.8
20260503024430 46 0 0.0 0.0 0.00 0.00 0.00 1 991.6
20260503023829 46 0 0.0 0.0 0.00 0.00 0.00 1 991.8
20260503023353 46 0 0.0 0.0 0.00 0.00 0.00 1 991.6
20260503022626 46 0 0.0 0.0 0.00 0.00 0.00 1 991.8
20260503022025 46 0 0.0 0.0 0.00 0.00 0.00 1 991.8
20260503021424 48 0 0.0 0.0 0.00 0.00 0.00 1 991.8
20260503020822 48 0 0.0 0.0 0.00 0.00 0.00 1 991.8
20260503020221 48 0 0.0 0.0 0.00 0.00 0.00 1 991.8
20260503015620 48 0 0.0 0.0 0.00 0.00 0.00 1 991.8
20260503015019 48 0 0.0 0.0 0.00 0.00 0.00 1 991.8
20260503014417 48 0 0.0 0.0 0.00 0.00 0.00 1 991.8
20260503013816 48 0 0.0 0.0 0.00 0.00 0.00 1 991.8
20260503013215 48 0 0.0 0.0 0.00 0.00 0.00 1 992.1
20260503012613 48 0 0.0 0.0 0.00 0.00 0.00 1 992.1
20260503012012 48 0 0.0 0.0 0.00 0.00 0.00 1 992.1
20260503011411 48 0 0.0 0.0 0.00 0.00 0.00 1 992.1
20260503010810 50 0 0.0 0.0 0.00 0.00 0.00 1 992.1
20260503010437 50 0 0.0 0.0 0.00 0.00 0.00 1 992.1
20260503005607 50 0 0.0 0.0 0.00 0.00 0.00 1 992.1
20260503005006 50 0 0.0 0.0 0.00 0.00 0.00 1 992.1
20260503004404 50 0 0.0 0.0 0.00 0.00 0.00 1 992.4
20260503003803 50 0 0.0 0.0 0.00 0.00 0.00 1 992.1
20260503003343 50 0 0.0 0.0 0.00 0.00 0.00 1 992.4
20260503002600 50 0 0.0 0.0 0.00 0.00 0.00 1 992.1
20260503001959 50 0 0.0 0.0 0.00 0.00 0.00 1 992.4
20260503001358 50 0 0.0 0.0 0.00 0.00 0.00 1 992.1
20260503000757 50 0 0.0 0.0 0.00 0.00 0.00 1 992.1
20260503000354 50 0 0.0 0.0 0.00 0.00 0.00 1 992.4